User: anonymous   Login
Location: Oshawa
(43.9000°N, 78.8670°W)
Time: 02:52:32
(UTC-04:00)
Language:

Thor Agena Rocket - Orbit

View from above orbital plane
View from above orbital plane
View from above satellite
View from above satellite

Ground track
Ground track

The orbit data is extracted from the following two-line orbital elements,

1 00733U 64002A   16146.86046283  .00000046  00000-0  34966-4 0  9992
2 00733  99.0984 306.6888 0033262 222.0790 137.7836 14.32213457726867
Epoch (UTC): 25 May 2016 20:39:03
Eccentricity: 0.0033262
inclination: 99.0984°
perigee height: 760 km
apogee height: 808 km
right ascension of ascending node: 306.6888°
argument of perigee: 222.0790°
revolutions per day: 14.32213457
mean anomaly at epoch: 137.7836°
orbit number at epoch: 72686

The dashed part of the orbit path shows where the satellite is in the earth's shadow,  

DLR